Wind_Speed
14 13 13 14 12 11 11 11 11 14 13 13 15 14 14 15 13 13 14 14 12 5 12 14 17 16 10 7 9 6 5 3 2 2 3 4 3 4 4 9 12 9 4 4 4 6 8 12 2 0 2 5 4 4
12 12 11 10 11 10 11 11 14 13 13 16 13 13 15 15 13 13 11 17 18 7 11 31 36 35 28 21 8 3 3 4 4 2 3 2 5 5 7 3 4 4 7 2 7 6 3 5 2 3 6 4 3 3
10 10 10 11 11 10 14 15 13 13 13 11 11 12 12 14 13 11 17 18 16 5 10 11 13 34 35 34 33 10 8 5 6 10 5 4 8 2 2 4 4 4 5 3 2 5 7 10 12 7 14 7 5 7
10 9 11 10 9 11 13 11 10 11 14 14 13 13 12 13 13 14 19 18 13 3 4 6 15 15 22 25 28 27 23 6 5 2 3 2 3 4 3 4 7 6 7 6 8 8 7 6 9 6 8 8 8 6
10 9 9 9 10 11 13 13 14 14 13 13 11 13 13 14 14 14 22 24 22 7 3 6 24 41 31 31 26 22 15 12 5 4 5 4 3 3 4 3 5 4 7 4 8 13 11 7 3 3 7 7 6 7
11 9 9 10 10 11 11 12 12 13 13 10 13 10 9 11 10 10 4 3 20 23 3 3 4 14 22 18 11 7 10 7 4 3 2 3 3 1 3 4 9 6 7 15 14 14 16 12 5 7 5 7 7 7
12 12 11 10 10 10 10 11 11 12 12 11 11 12 12 13 12 6 4 2 13 13 2 4 4 4 6 5 2 1 1 2 2 1 3 4 3 1 2 11 22 17 16 16 7 5 4 9 5 8 11 14 15 14
12 13 12 12 13 12 11 12 10 11 11 12 12 14 14 12 14 17 30 30 16 3 3 3 5 4 6 2 1 4 2 2 3 2 3 3 2 5 6 8 13 14 2 5 5 5 5 7 10 10 11 13 16 16
12 14 14 13 13 13 13 12 12 11 12 13 15 17 17 7 4 7 12 20 23 10 3 4 3 4 1 1 2 2 3 3 4 5 3 3 3 5 7 11 4 9 3 6 8 8 9 8 9 10 11 13 15 16
12 13 13 13 13 14 13 13 14 12 13 15 10 4 3 5 5 5 0 1 5 5 5 5 1 6 1 2 2 2 2 2 3 6 1 3 4 6 13 9 7 6 9 9 7 9 10 10 11 13 15 15 16 19
13 13 15 15 15 12 13 12 12 11 11 3 3 2 7 2 3 3 3 4 4 4 4 4 8 12 4 8 4 3 2 3 2 4 5 3 1 1 5 7 8 10 10 9 8 8 10 11 13 14 16 17 18 19
12 13 15 15 16 15 14 13 11 7 6 8 12 11 6 3 2 3 3 3 5 5 4 4 4 6 3 2 3 3 4 1 5 2 2 2 2 6 8 10 11 9 10 12 12 11 12 14 13 13 15 16 16 18
13 14 15 16 17 18 15 14 12 12 11 8 4 3 2 4 3 5 5 4 3 3 2 3 2 2 1 1 2 0 1 4 0 2 2 3 2 5 7 8 10 10 10 10 12 11 11 12 14 12 13 15 19 15
13 15 17 19 24 20 20 16 12 7 5 3 3 4 5 5 5 5 4 3 3 2 3 2 3 3 3 3 3 2 4 2 2 2 2 2 3 4 4 5 6 8 8 9 10 11 11 11 12 13 12 15 14 13
14 15 16 17 19 13 12 7 11 8 4 3 3 5 6 5 4 3 2 2 3 1 2 2 2 2 2 1 3 3 2 4 3 2 2 1 3 1 2 4 6 7 8 8 7 8 9 9 12 13 15 18 17 16
13 15 16 5 10 10 11 8 5 5 3 3 5 4 4 3 4 3 2 2 2 2 1 1 2 3 5 3 5 6 3 2 2 2 1 2 4 4 3 4 5 7 8 8 9 9 8 9 11 12 17 14 16 17
12 6 11 11 9 10 8 3 4 5 5 5 4 4 6 4 6 6 3 3 2 1 2 3 4 8 2 3 4 2 2 2 2 2 1 3 3 3 4 4 6 7 9 9 7 9 8 13 14 7 11 14 18 17
13 14 10 3 8 11 4 10 3 4 7 6 4 4 3 3 5 5 3 3 2 3 2 3 3 2 3 3 2 0 2 1 3 2 2 3 4 4 4 6 6 7 8 8 8 8 9 7 7 7 9 16 15 15
11 7 7 8 6 3 2 4 7 4 7 4 5 5 4 4 4 5 4 4 3 2 1 2 4 3 1 2 3 2 3 2 2 2 3 3 2 3 5 7 10 5 6 7 6 4 6 9 8 10 11 12 6 12
8 10 11 11 7 3 4 4 6 4 4 5 7 9 7 7 6 3 4 3 3 3 3 4 3 0 3 2 2 2 2 2 1 2 3 3 3 7 6 6 6 8 6 9 9 7 6 5 9 12 12 11 7 6
11 12 13 13 7 11 4 4 4 3 4 4 4 5 5 2 2 2 2 3 2 2 3 1 2 3 5 3 2 2 3 3 1 1 2 3 4 5 5 11 11 7 2 4 6 4 3 3 10 12 11 10 13 13
7 9 6 8 4 5 6 7 4 3 3 4 4 2 2 3 3 3 3 4 3 3 2 3 3 4 4 4 2 6 4 3 6 2 4 5 3 5 5 5 4 5 5 6 8 8 4 10 12 12 12 12 11 13
10 8 5 5 4 5 6 10 8 7 5 3 2 3 3 2 3 2 2 1 2 1 3 3 3 6 6 6 8 8 5 2 2 3 2 2 7 8 9 8 11 6 6 9 17 15 15 14 11 12 12 11 11 11
11 3 5 5 8 5 3 4 4 4 4 7 7 11 8 2 1 1 3 3 1 2 4 5 4 3 2 2 3 2 2 4 2 7 9 5 3 5 9 8 11 12 13 14 15 16 17 18 19 10 10 10 9 7
5 7 5 8 5 5 5 4 6 6 5 5 4 4 2 1 3 3 3 2 2 2 3 3 2 3 3 4 4 2 5 4 2 3 8 10 10 9 9 11 9 14 19 16 16 17 17 19 19 20 8 8 8 5
7 7 8 6 4 6 4 3 7 7 3 4 5 1 1 3 3 1 2 1 2 3 2 2 3 3 4 3 6 3 4 6 7 3 6 9 9 4 2 3 4 8 21 18 16 16 17 18 17 18 17 7 7 5
6 5 5 6 8 5 4 4 7 2 4 4 3 4 3 3 2 1 1 2 3 3 12 12 7 4 6 4 13 9 7 4 3 3 5 8 8 8 9 6 4 13 18 18 19 18 17 17 18 17 17 18 6 5
5 6 9 6 6 8 7 4 3 4 3 2 1 4 3 1 2 1 2 7 14 16 16 17 19 18 16 16 14 11 7 6 5 4 2 14 11 13 11 12 12 14 16 16 18 19 21 18 19 18 17 15 13 4
5 4 4 8 6 5 6 4 3 2 1 1 2 2 2 2 1 2 4 14 15 14 7 6 13 16 16 13 12 11 9 11 4 4 4 3 2 8 14 14 16 17 18 20 18 19 19 21 20 20 21 16 15 7
4 5 2 4 6 4 1 2 2 1 3 2 3 2 2 1 3 7 14 12 7 3 10 13 14 14 7 7 7 11 10 10 11 8 3 2 3 9 12 14 17 18 18 20 22 22 22 24 22 20 21 19 8 10
3 4 3 6 2 3 3 3 3 3 2 2 3 2 2 2 1 2 6 6 13 16 14 8 10 9 9 7 4 4 2 6 7 6 4 4 5 8 9 13 15 14 14 19 21 18 22 21 19 17 17 19 21 7
4 5 3 3 2 2 2 2 2 2 1 2 2 2 2 2 2 1 3 14 12 4 12 14 10 9 11 12 13 13 13 10 3 2 3 2 4 6 7 12 13 10 14 17 16 17 19 20 18 19 17 18 20 20
2 5 3 3 2 2 2 2 2 2 2 3 2 3 3 2 3 2 7 7 8 9 14 16 20 16 14 11 9 8 7 7 6 7 7 7 6 7 10 15 13 10 14 14 15 17 17 18 19 20 21 20 21 23
Wind_Direction
285 285 282 279 288 288 280 278 280 288 280 280 273 267 276 249 246 254 264 257 258 269 275 266 261 261 269 259 275 287 340 323 339 197 164 239 231 231 254 254 251 248 242 211 188 218 254 287 102 33 246 317 353 12
288 283 293 289 292 288 281 281 291 277 281 294 269 265 277 242 249 261 256 269 270 249 269 286 281 277 262 264 275 229 241 296 241 331 303 332 303 290 245 250 331 254 221 248 197 215 280 328 63 296 275 240 296 326
299 291 291 291 291 296 299 287 280 277 290 285 279 271 266 239 253 253 261 272 287 278 278 252 254 262 254 249 247 251 253 242 253 238 258 239 240 234 226 242 258 247 303 211 319 256 287 315 299 287 299 287 302 293
309 300 297 295 290 297 295 292 296 278 290 282 280 267 269 248 253 266 273 273 248 276 279 281 282 256 269 257 243 223 235 188 226 219 252 245 259 224 243 264 280 248 295 274 267 258 258 248 237 242 283 317 296 303
327 315 305 300 301 297 294 293 291 293 287 280 273 272 271 247 260 277 280 265 250 211 281 301 309 290 269 261 255 255 218 224 225 208 221 226 224 228 245 257 250 214 237 237 272 287 288 285 257 260 259 274 286 279
344 328 315 309 302 306 302 295 294 293 290 272 285 262 269 266 277 298 305 15 240 225 253 271 280 272 268 245 211 235 237 205 218 189 249 242 227 138 261 254 237 240 260 238 257 270 273 283 335 0 339 328 323 309
336 337 333 318 306 307 304 300 295 288 287 281 280 267 274 261 250 209 214 121 358 169 275 299 276 262 357 126 104 55 98 135 198 227 226 244 236 258 253 264 269 276 272 280 327 6 351 1 0 345 343 338 334 329
330 324 321 322 331 324 307 310 300 290 284 283 288 276 280 278 264 252 252 260 253 254 244 260 264 285 144 164 221 162 166 156 205 223 241 221 232 192 243 251 251 270 6 356 306 17 15 358 360 351 337 331 324 317
321 317 322 318 310 312 324 328 305 296 289 284 294 287 285 247 223 241 271 252 227 205 242 214 221 268 123 232 205 182 165 206 189 217 228 165 199 224 227 243 25 352 347 353 6 12 3 351 329 322 320 312 304 300
315 317 322 318 317 307 311 309 322 294 286 292 297 206 234 214 251 263 164 89 188 200 219 236 247 253 159 185 271 230 156 242 230 223 158 200 246 265 18 40 65 32 26 25 7 345 341 342 339 327 317 310 303 298
305 311 310 313 320 313 311 310 320 316 299 223 213 220 327 244 227 202 225 206 186 232 214 242 215 244 256 238 236 222 233 237 241 253 177 222 235 58 58 9 25 28 20 6 1 344 332 326 317 309 303 299 295 291
300 307 311 309 310 311 304 299 302 304 264 310 300 289 249 230 226 219 227 225 206 231 192 196 213 190 256 347 177 176 222 81 248 203 131 267 60 19 30 17 13 13 359 348 346 331 320 316 312 308 305 300 298 296
296 300 303 312 306 299 299 295 282 291 288 277 204 244 162 223 245 215 218 229 234 233 13 343 279 192 172 113 244 243 244 233 21 57 222 58 9 25 24 2 356 355 344 340 328 322 321 314 315 303 297 303 305 300
292 296 302 304 309 290 285 273 254 275 246 232 215 251 206 215 224 205 238 251 280 26 8 324 266 190 208 170 196 234 232 340 294 223 108 83 88 30 8 345 339 334 340 327 319 321 317 311 308 302 297 305 307 309
284 300 306 303 302 329 342 287 224 215 250 241 223 234 230 232 261 241 289 346 318 107 31 333 270 198 251 225 215 231 276 242 199 96 103 183 111 27 347 358 340 337 335 320 311 317 320 317 321 322 323 321 311 312
268 293 295 304 324 322 330 326 210 208 242 242 233 256 278 303 283 297 333 290 286 167 91 85 277 282 232 213 188 215 235 186 147 103 119 57 45 355 18 358 333 317 317 320 330 332 329 334 330 327 327 329 334 329
247 255 279 295 332 326 312 276 233 220 226 223 238 226 249 264 267 269 228 252 289 90 217 197 211 224 281 229 214 55 98 109 132 110 77 33 19 356 2 330 333 319 330 332 324 339 329 318 321 334 345 337 335 334
233 258 279 291 335 331 276 205 242 246 237 229 246 239 272 259 270 264 245 257 179 180 195 228 302 265 242 283 33 183 101 79 71 75 45 321 18 7 348 312 329 315 323 326 329 327 329 338 343 347 334 337 333 341
240 261 295 297 320 318 270 244 205 255 230 224 226 235 229 236 230 236 228 234 201 212 112 267 228 225 187 35 83 71 60 66 26 310 280 82 30 357 319 328 314 300 316 323 327 331 326 332 342 342 336 337 340 342
245 255 267 287 263 236 249 248 235 241 234 225 232 247 250 254 255 227 218 209 158 167 183 209 225 123 122 128 106 113 118 81 287 315 323 343 20 344 314 304 305 313 312 323 327 322 327 325 345 347 347 344 341 347
251 258 258 251 248 211 267 276 247 234 234 216 214 232 241 242 248 211 204 165 153 210 220 197 118 111 91 99 95 90 75 60 21 319 299 327 334 305 316 316 322 315 350 352 345 326 353 313 332 340 340 348 355 352
227 253 277 256 224 234 225 219 250 290 271 275 304 260 255 275 259 219 178 193 195 202 126 136 143 144 143 144 145 106 99 7 303 275 47 13 331 325 323 334 13 7 2 7 344 337 333 348 341 343 346 342 357 1
248 243 226 225 251 249 248 200 221 214 235 261 328 277 265 252 210 68 226 202 131 92 116 109 104 93 122 143 140 124 110 343 309 81 44 348 329 339 339 1 44 24 360 349 344 345 342 337 343 342 354 359 2 4
229 206 217 219 206 245 240 234 218 206 214 227 238 248 256 260 86 230 221 168 154 120 113 133 139 128 117 132 142 135 111 2 62 85 52 23 357 347 355 23 55 33 7 345 347 344 345 343 340 333 347 352 359 13
215 206 205 230 245 211 229 232 240 238 226 218 201 255 226 131 199 220 211 140 144 143 136 164 167 179 196 152 120 124 106 54 42 115 71 55 18 4 11 16 57 40 11 360 354 345 343 342 342 346 329 354 353 10
225 217 195 212 225 223 247 212 197 206 206 201 225 121 294 208 212 201 65 134 124 122 145 157 162 121 77 73 121 117 91 40 16 108 96 81 62 44 358 2 354 359 358 349 341 339 337 339 339 340 342 320 339 341
221 217 218 219 253 269 255 239 235 202 203 209 206 151 180 241 189 89 71 17 86 75 81 74 69 81 110 100 96 96 86 60 69 109 132 127 100 67 41 26 355 343 347 347 345 337 330 329 332 328 324 331 295 322
214 205 230 245 235 237 251 257 191 208 221 145 296 177 195 137 117 76 90 116 111 100 84 76 83 91 88 82 76 70 45 16 338 260 202 117 86 53 33 14 2 354 350 350 342 342 333 328 324 315 309 306 305 216
212 204 214 236 258 232 215 223 211 83 325 17 104 99 106 54 353 105 128 123 124 116 105 104 108 107 99 90 78 65 49 40 47 60 65 56 15 14 8 0 360 355 355 348 350 352 342 339 332 324 311 287 297 224
216 157 192 241 198 180 97 27 101 60 31 91 107 105 80 47 11 138 136 147 148 145 146 148 160 158 152 136 126 89 60 60 64 70 99 61 339 2 350 353 354 348 351 350 350 350 354 357 357 357 356 351 302 185
163 156 185 222 109 64 85 85 75 68 44 61 32 91 109 141 40 138 166 163 126 123 120 108 112 117 110 109 117 137 103 77 67 59 84 40 8 341 350 352 340 343 352 354 355 3 6 3 358 353 352 350 344 302
167 197 144 103 93 98 107 139 152 142 143 121 126 107 123 113 161 191 121 141 141 129 147 145 115 104 114 110 106 104 122 128 118 37 14 350 342 2 11 353 353 1 2 6 12 17 16 13 6 3 355 353 350 345
74 74 71 95 93 151 219 164 166 153 188 171 159 166 177 173 140 128 157 165 162 161 139 128 133 130 129 128 126 114 107 99 87 53 43 36 36 35 24 14 12 20 25 28 30 24 22 19 16 15 10 7 6 3
Height
760 759 759 759 758 758 758 758 757 757 757 756 756 757 758 758 759 761 760 761 762 756 746 744 741 743 742 742 743 736 739 732 736 734 743 735 719 700 697 685 685 686 686 686 694 692 692 637 632 641 642 638 636 638
756 755 755 754 754 754 754 753 753 752 752 751 750 751 752 754 755 756 756 756 756 753 740 738 734 732 735 731 734 731 731 729 729 729 722 718 710 709 695 690 671 679 669 675 670 665 647 639 637 632 633 637 635 636
753 752 751 750 751 751 750 749 748 748 748 747 746 747 746 748 750 751 751 751 751 746 733 726 720 716 718 719 722 728 720 720 722 720 724 718 711 699 700 684 673 664 658 672 667 655 649 650 642 635 632 632 630 631
750 749 748 747 747 747 746 745 744 744 744 743 743 743 743 744 745 746 746 745 747 743 735 715 709 707 706 707 707 707 706 714 716 716 711 707 702 696 692 683 680 672 663 658 654 648 645 641 639 635 632 630 629 628
747 746 745 744 743 743 742 741 741 740 740 739 739 739 738 740 741 741 739 736 738 743 733 718 708 692 691 695 696 698 701 706 707 705 702 699 696 692 688 681 674 661 656 663 652 639 640 643 636 632 632 629 628 627
745 744 743 742 740 739 738 737 736 736 736 735 735 735 735 736 738 738 733 726 727 731 733 720 697 684 681 682 685 689 687 694 697 695 692 690 681 689 689 677 651 645 642 641 640 632 629 627 627 627 629 628 625 624
744 742 740 739 738 736 735 733 732 731 732 731 731 732 731 731 733 734 730 725 725 727 727 720 703 677 673 678 683 687 687 689 692 691 688 685 682 685 686 671 645 644 638 634 632 630 632 628 633 628 625 621 618 616
742 741 738 736 736 733 732 731 729 728 728 727 727 727 727 726 726 723 719 720 727 730 727 722 705 686 673 682 683 683 688 688 688 686 682 678 676 676 662 645 639 634 637 635 634 632 633 632 630 632 631 627 623 619
739 738 736 733 732 731 728 727 726 724 724 723 723 723 722 720 719 712 709 712 719 724 715 708 702 700 674 678 679 679 680 681 683 678 673 671 665 662 645 635 638 638 637 636 634 634 635 637 636 633 632 630 626 622
736 734 733 730 729 728 726 723 721 720 720 720 719 718 716 710 708 709 708 711 711 709 705 695 686 686 680 678 674 673 673 673 672 662 659 661 653 640 646 638 640 641 640 640 642 642 639 639 638 636 633 629 625 620
731 730 729 727 725 724 723 721 718 717 714 715 713 710 708 705 705 705 704 702 700 697 689 679 677 675 672 673 676 673 668 666 671 652 654 647 646 647 651 651 644 644 645 646 646 644 642 640 638 635 630 627 622 617
726 725 725 723 721 720 719 718 716 716 713 712 713 708 705 703 705 703 699 688 684 675 669 668 665 664 662 659 661 662 660 659 654 643 649 646 651 649 648 648 647 647 648 645 643 642 640 637 635 632 628 623 618 612
722 721 720 719 716 716 714 714 712 711 711 709 709 707 705 704 711 693 700 677 677 658 657 657 659 657 656 656 658 657 660 663 643 666 648 650 654 651 651 651 649 648 647 645 643 640 637 634 631 629 625 619 613 607
718 716 715 714 711 708 707 708 707 708 709 706 702 712 699 691 680 671 667 667 657 655 660 661 658 657 653 658 655 656 648 648 659 659 641 655 656 655 655 653 652 650 647 645 642 638 634 631 628 624 619 613 608 601
714 713 710 708 708 705 703 702 703 705 705 701 693 696 675 665 660 659 655 656 655 655 658 660 656 653 656 654 649 646 649 648 640 654 652 656 656 655 655 654 652 650 646 643 640 636 632 629 624 618 613 608 604 598
710 709 705 705 705 704 702 701 700 702 700 694 684 675 667 666 667 662 660 661 654 655 658 661 657 653 648 644 641 646 633 650 651 654 652 652 653 654 654 653 652 650 646 642 637 634 629 627 622 617 611 606 601 595
706 704 702 702 702 701 701 700 698 694 689 678 674 666 666 665 663 660 660 659 652 658 663 655 657 647 641 641 630 640 649 648 649 651 653 653 653 653 653 651 650 647 643 639 635 632 627 625 621 615 609 605 600 595
698 698 699 698 699 698 695 693 692 682 671 667 668 663 661 659 657 654 653 650 654 654 653 650 649 640 638 631 639 649 650 650 652 655 655 653 653 653 653 650 647 645 641 636 633 629 627 624 620 616 611 606 601 595
693 694 695 696 697 698 695 683 680 672 660 658 654 653 652 650 646 644 644 643 644 645 648 648 643 642 642 644 646 652 653 655 658 658 653 653 653 653 652 648 646 642 638 635 631 629 627 625 621 617 613 608 604 598
688 690 691 691 694 695 690 677 666 660 651 648 645 645 644 642 639 639 638 639 641 645 648 644 643 646 647 652 653 654 654 654 656 656 659 655 653 653 650 648 643 639 637 634 631 628 626 624 621 617 613 610 606 601
684 685 686 687 687 688 682 668 656 648 643 641 636 637 638 635 635 636 636 634 639 640 641 639 647 647 647 650 651 653 655 656 658 657 656 655 655 652 649 645 641 638 636 635 633 629 626 624 621 617 614 611 608 604
679 680 681 681 681 676 669 659 654 643 642 637 635 632 634 638 633 630 629 630 633 637 637 639 642 644 648 651 653 654 655 656 656 655 656 656 656 653 649 646 643 642 640 638 636 630 626 624 621 618 615 612 609 605
675 677 677 676 674 663 652 644 645 642 646 636 631 632 632 630 625 622 625 627 634 632 634 639 642 644 648 650 652 654 655 655 655 656 657 656 655 653 650 647 646 646 644 641 639 635 630 625 622 619 615 612 610 607
670 672 669 666 660 657 638 637 629 627 626 627 628 629 624 627 624 624 625 630 635 633 636 640 642 646 648 649 651 654 654 654 655 656 657 657 656 654 652 650 650 650 649 646 642 638 633 629 624 620 616 614 612 610
666 662 661 655 644 642 641 633 626 621 633 627 623 629 627 624 624 623 624 631 636 636 637 639 640 641 643 646 652 654 654 654 656 658 658 657 657 656 655 654 653 652 650 647 643 640 636 631 627 623 618 615 613 612
652 643 645 641 640 633 627 630 627 627 622 625 617 617 617 616 613 619 626 631 634 635 637 639 640 641 645 645 650 654 655 655 655 657 658 658 658 659 659 658 656 654 653 650 647 643 638 634 630 626 622 617 615 613
639 632 623 619 617 613 617 612 606 610 618 622 620 622 616 617 623 635 633 632 634 637 638 639 639 640 645 649 651 653 654 655 656 657 657 658 659 659 660 659 658 657 653 651 648 644 640 636 632 628 624 620 616 614
624 617 624 619 617 611 614 613 609 614 612 606 610 609 615 621 632 633 634 637 637 639 641 643 644 646 649 652 653 654 655 655 656 656 657 658 659 660 660 659 657 655 653 650 647 644 640 636 632 627 624 620 617 614
612 606 610 610 613 611 608 607 609 611 611 610 619 619 630 634 634 635 636 637 639 641 643 646 649 650 652 654 656 657 658 657 656 660 661 661 662 660 659 658 656 654 651 648 645 642 639 635 630 625 620 617 616 615
606 601 608 604 605 607 610 610 613 614 615 616 620 627 633 636 636 636 637 638 640 642 644 646 648 650 653 655 658 660 660 660 659 660 665 666 663 661 659 658 655 653 650 647 644 640 637 632 627 622 619 616 613 613
592 595 601 603 601 609 612 615 616 618 619 620 621 625 635 637 637 637 638 638 640 642 644 647 650 651 652 654 656 660 663 663 662 662 663 663 662 660 659 658 655 653 650 648 644 642 638 634 631 627 623 619 615 612
590 591 599 608 616 617 617 618 618 621 623 623 627 631 635 637 640 638 638 639 640 643 644 647 650 653 654 656 657 658 660 662 663 663 662 662 661 660 659 657 655 653 651 648 646 643 640 638 634 630 626 622 618 613
591 595 602 611 619 618 617 615 617 620 621 619 626 627 628 628 632 637 639 639 640 641 644 647 650 653 656 658 659 660 661 662 663 663 663 662 661 660 659 657 655 653 651 650 647 645 643 640 637 634 630 626 621 615